| time (UTC) | temp F | wind direction | speed MPH | gust MPH | rain 1hr in | rain 24hr in | rain mn in | humidity % | barometer mb |
| 20260508224558 | 46 | 346 | 0.0 | 2.0 | 0.00 | 0.00 | 0.00 | 85 | 1020.1 |
| 20260508223051 | 44 | 0 | 0.0 | 2.0 | 0.00 | 0.00 | 0.00 | 88 | 1020.2 |
| 20260508221538 | 45 | 313 | 0.0 | 2.0 | 0.00 | 0.00 | 0.00 | 87 | 1020.5 |
| 20260508220048 | 45 | 352 | 0.0 | 2.0 | 0.00 | 0.00 | 0.00 | 87 | 1020.3 |
| 20260508214544 | 45 | 348 | 1.0 | 3.0 | 0.00 | 0.00 | 0.00 | 88 | 1020.4 |
| 20260508213045 | 44 | 360 | 2.0 | 6.0 | 0.00 | 0.00 | 0.00 | 87 | 1020.5 |
| 20260508211540 | 45 | 350 | 3.0 | 7.0 | 0.00 | 0.00 | 0.00 | 85 | 1020.5 |
| 20260508210050 | 46 | 344 | 3.0 | 4.0 | 0.00 | 0.00 | 0.00 | 84 | 1020.7 |
| 20260508204540 | 47 | 360 | 1.0 | 3.0 | 0.00 | 0.00 | 0.00 | 83 | 1020.9 |
| 20260508203042 | 48 | 0 | 0.0 | 4.0 | 0.00 | 0.00 | 0.00 | 81 | 1021.0 |
| 20260508201544 | 47 | 352 | 2.0 | 4.0 | 0.00 | 0.00 | 0.00 | 83 | 1021.1 |
| 20260508200043 | 47 | 338 | 2.0 | 5.0 | 0.00 | 0.00 | 0.00 | 85 | 1021.2 |
| 20260508194542 | 48 | 328 | 3.0 | 4.0 | 0.00 | 0.00 | 0.00 | 84 | 1021.2 |
| 20260508193040 | 48 | 360 | 4.0 | 6.0 | 0.00 | 0.00 | 0.00 | 84 | 1021.3 |
| 20260508191548 | 48 | 350 | 3.0 | 5.0 | 0.00 | 0.00 | 0.00 | 83 | 1021.3 |
| 20260508190046 | 48 | 9 | 3.0 | 4.0 | 0.00 | 0.00 | 0.00 | 82 | 1021.4 |
| 20260508184548 | 49 | 350 | 3.0 | 4.0 | 0.00 | 0.00 | 0.00 | 80 | 1021.3 |
| 20260508183046 | 49 | 352 | 2.0 | 4.0 | 0.00 | 0.00 | 0.00 | 80 | 1021.4 |
| 20260508181539 | 50 | 351 | 2.0 | 5.0 | 0.00 | 0.00 | 0.00 | 80 | 1021.6 |
| 20260508180049 | 50 | 346 | 1.0 | 3.0 | 0.00 | 0.00 | 0.00 | 79 | 1021.4 |
| 20260508174554 | 51 | 9 | 2.0 | 4.0 | 0.00 | 0.00 | 0.00 | 78 | 1021.4 |
| 20260508173050 | 51 | 343 | 1.0 | 4.0 | 0.00 | 0.00 | 0.00 | 80 | 1021.3 |
| 20260508171548 | 51 | 350 | 1.0 | 2.0 | 0.00 | 0.00 | 0.00 | 79 | 1021.3 |
| 20260508170039 | 52 | 0 | 0.0 | 2.0 | 0.00 | 0.00 | 0.00 | 76 | 1021.4 |
| 20260508164551 | 52 | 0 | 0.0 | 3.0 | 0.00 | 0.00 | 0.00 | 76 | 1021.3 |
| 20260508163048 | 52 | 0 | 0.0 | 1.0 | 0.00 | 0.00 | 0.00 | 75 | 1021.2 |
| 20260508161552 | 54 | 0 | 0.0 | 0.0 | 0.00 | 0.00 | 0.00 | 71 | 1021.2 |
| 20260508160044 | 55 | 0 | 0.0 | 0.0 | 0.00 | 0.00 | 0.00 | 66 | 1021.1 |
| 20260508154607 | 57 | 0 | 0.0 | 0.0 | 0.00 | 0.01 | 0.00 | 64 | 1021.1 |
| 20260508153047 | 58 | 15 | 0.0 | 4.0 | 0.00 | 0.01 | 0.00 | 58 | 1021.1 |
| 20260508151549 | 59 | 13 | 1.0 | 7.0 | 0.00 | 0.01 | 0.00 | 56 | 1021.1 |
| 20260508150056 | 60 | 13 | 3.0 | 9.0 | 0.00 | 0.01 | 0.00 | 53 | 1020.9 |
| 20260508144542 | 60 | 254 | 4.0 | 7.0 | 0.00 | 0.02 | 0.00 | 50 | 1021.0 |
| 20260508143105 | 60 | 221 | 4.0 | 8.0 | 0.00 | 0.02 | 0.00 | 50 | 1020.9 |
| 20260508141546 | 61 | 237 | 4.0 | 9.0 | 0.00 | 0.02 | 0.00 | 48 | 1020.9 |
| 20260508134545 | 61 | 253 | 4.0 | 9.0 | 0.00 | 0.02 | 0.00 | 49 | 1021.1 |
| 20260508133104 | 62 | 263 | 7.0 | 11.0 | 0.00 | 0.02 | 0.00 | 46 | 1021.1 |
| 20260508131548 | 62 | 184 | 2.0 | 9.0 | 0.00 | 0.02 | 0.00 | 50 | 1021.0 |
| 20260508130047 | 62 | 9 | 2.0 | 6.0 | 0.00 | 0.02 | 0.00 | 48 | 1021.1 |
| 20260508124547 | 62 | 18 | 3.0 | 5.0 | 0.00 | 0.02 | 0.00 | 47 | 1021.1 |
| 20260508123052 | 61 | 223 | 0.0 | 6.0 | 0.00 | 0.02 | 0.00 | 50 | 1021.3 |
| 20260508121543 | 61 | 289 | 3.0 | 8.0 | 0.00 | 0.02 | 0.00 | 49 | 1021.5 |
| 20260508120046 | 60 | 0 | 2.0 | 10.0 | 0.00 | 0.02 | 0.00 | 50 | 1021.5 |
| 20260508114550 | 62 | 0 | 2.0 | 11.0 | 0.00 | 0.02 | 0.00 | 49 | 1021.7 |
| 20260508113057 | 62 | 266 | 3.0 | 6.0 | 0.00 | 0.02 | 0.00 | 50 | 1021.7 |
| 20260508111547 | 61 | 360 | 2.0 | 6.0 | 0.00 | 0.02 | 0.00 | 50 | 1022.0 |
| 20260508110043 | 60 | 173 | 4.0 | 7.0 | 0.00 | 0.02 | 0.00 | 54 | 1022.3 |
| 20260508104548 | 60 | 332 | 0.0 | 10.0 | 0.00 | 0.02 | 0.00 | 53 | 1022.6 |
| 20260508103051 | 61 | 329 | 1.0 | 4.0 | 0.00 | 0.02 | 0.00 | 53 | 1022.8 |
| 20260508101547 | 60 | 229 | 2.0 | 7.0 | 0.00 | 0.02 | 0.00 | 55 | 1023.1 |
| 20260508100052 | 59 | 242 | 1.0 | 4.0 | 0.00 | 0.02 | 0.00 | 53 | 1023.3 |
| 20260508094549 | 58 | 0 | 2.0 | 9.0 | 0.00 | 0.02 | 0.00 | 58 | 1023.9 |
| 20260508093048 | 58 | 323 | 1.0 | 8.0 | 0.00 | 0.02 | 0.00 | 59 | 1024.1 |
| 20260508091601 | 57 | 280 | 1.0 | 5.0 | 0.00 | 0.02 | 0.00 | 62 | 1024.2 |
| 20260508090047 | 56 | 352 | 1.0 | 9.0 | 0.00 | 0.02 | 0.00 | 64 | 1024.4 |
| 20260508084555 | 55 | 336 | 2.0 | 5.0 | 0.00 | 0.02 | 0.00 | 66 | 1024.5 |
| 20260508083052 | 54 | 352 | 1.0 | 3.0 | 0.00 | 0.02 | 0.00 | 70 | 1024.5 |
| 20260508081550 | 53 | 17 | 2.0 | 4.0 | 0.00 | 0.02 | 0.00 | 73 | 1024.7 |
| 20260508080054 | 53 | 9 | 2.0 | 4.0 | 0.00 | 0.02 | 0.00 | 74 | 1024.7 |
| 20260508074548 | 52 | 9 | 2.0 | 4.0 | 0.00 | 0.02 | 0.00 | 78 | 1024.8 |
| 20260508073100 | 50 | 350 | 2.0 | 4.0 | 0.00 | 0.02 | 0.00 | 79 | 1024.8 |
| 20260508071544 | 49 | 0 | 1.0 | 3.0 | 0.00 | 0.02 | 0.00 | 81 | 1024.8 |
| 20260508070048 | 48 | 325 | 1.0 | 3.0 | 0.00 | 0.02 | 0.00 | 82 | 1024.7 |
| 20260508064547 | 48 | 318 | 1.0 | 4.0 | 0.00 | 0.02 | 0.00 | 83 | 1024.7 |
| 20260508063054 | 46 | 321 | 2.0 | 4.0 | 0.00 | 0.02 | 0.00 | 83 | 1024.5 |
| 20260508061542 | 45 | 360 | 2.0 | 4.0 | 0.00 | 0.02 | 0.00 | 87 | 1024.4 |
| 20260508060045 | 43 | 5 | 2.0 | 5.0 | 0.00 | 0.02 | 0.00 | 88 | 1024.4 |
| 20260508054552 | 42 | 348 | 2.0 | 4.0 | 0.00 | 0.02 | 0.00 | 89 | 1024.3 |
| 20260508053053 | 43 | 342 | 1.0 | 5.0 | 0.00 | 0.02 | 0.00 | 88 | 1024.3 |
| 20260508051540 | 43 | 351 | 1.0 | 4.0 | 0.00 | 0.02 | 0.00 | 89 | 1024.3 |
| 20260508044548 | 43 | 352 | 1.0 | 3.0 | 0.00 | 0.02 | 0.00 | 88 | 1024.2 |
| 20260508043049 | 44 | 303 | 1.0 | 3.0 | 0.00 | 0.02 | 0.00 | 88 | 1024.3 |
| 20260508041544 | 44 | 329 | 2.0 | 4.0 | 0.00 | 0.02 | 0.00 | 87 | 1024.3 |
| 20260508040052 | 44 | 329 | 2.0 | 4.0 | 0.00 | 0.02 | 0.00 | 87 | 1024.2 |
| 20260508034543 | 45 | 322 | 2.0 | 3.0 | 0.00 | 0.02 | 0.00 | 85 | 1024.2 |
| 20260508033046 | 47 | 325 | 3.0 | 8.0 | 0.00 | 0.02 | 0.00 | 80 | 1024.2 |
| 20260508031546 | 46 | 311 | 3.0 | 8.0 | 0.00 | 0.02 | 0.00 | 84 | 1024.3 |
| 20260508030050 | 44 | 344 | 2.0 | 5.0 | 0.00 | 0.02 | 0.00 | 86 | 1024.1 |
| 20260508024540 | 45 | 334 | 0.0 | 3.0 | 0.00 | 0.02 | 0.00 | 85 | 1024.0 |
| 20260508023044 | 45 | 350 | 1.0 | 3.0 | 0.00 | 0.02 | 0.00 | 85 | 1024.0 |
| 20260508021544 | 45 | 337 | 1.0 | 4.0 | 0.00 | 0.02 | 0.00 | 84 | 1024.0 |
| 20260508020054 | 47 | 260 | 1.0 | 4.0 | 0.00 | 0.02 | 0.00 | 82 | 1024.1 |
| 20260508014545 | 47 | 254 | 0.0 | 2.0 | 0.00 | 0.02 | 0.00 | 82 | 1024.1 |
| 20260508013043 | 48 | 288 | 2.0 | 5.0 | 0.00 | 0.02 | 0.00 | 81 | 1024.2 |
| 20260508011549 | 47 | 307 | 4.0 | 8.0 | 0.00 | 0.02 | 0.00 | 85 | 1024.0 |
| 20260508010048 | 48 | 329 | 2.0 | 4.0 | 0.00 | 0.02 | 0.00 | 83 | 1024.3 |
| 20260508004545 | 48 | 298 | 0.0 | 2.0 | 0.00 | 0.02 | 0.00 | 83 | 1024.5 |
| 20260508003051 | 48 | 0 | 1.0 | 2.0 | 0.00 | 0.02 | 0.00 | 84 | 1024.6 |
| 20260508001547 | 48 | 314 | 0.0 | 6.0 | 0.00 | 0.02 | 0.00 | 84 | 1024.4 |
| 20260508000043 | 49 | 286 | 1.0 | 4.0 | 0.00 | 0.02 | 0.00 | 83 | 1024.5 |
| 20260507234552 | 49 | 271 | 1.0 | 4.0 | 0.00 | 0.02 | 0.00 | 84 | 1024.4 |
| 20260507233103 | 49 | 245 | 0.0 | 4.0 | 0.00 | 0.02 | 0.00 | 84 | 1024.7 |
| 20260507231548 | 49 | 232 | 0.0 | 5.0 | 0.00 | 0.02 | 0.00 | 85 | 1024.7 |
| 20260507230048 | 50 | 225 | 2.0 | 5.0 | 0.00 | 0.02 | 0.00 | 85 | 1024.8 |